Home   Weather   Toulouse   Past weeks

Flag for France Past Weather in Toulouse, Midi-Pyrénées, France — Yesterday and Last 2 Weeks

55 °F


Feels Like: 55 °F
Forecast: 45 / 67 °F
Wind: 5 mph from Northwest

Location: Toulouse / Blagnac

Current Time: Oct 27, 2016 at 1:24:58 AM

Latest Report: Oct 27, 2016 at 1:00 AM

Visibility: 10 mi

Pressure: 30.39 "Hg

Humidity: 94%

Dew Point: 54 °F

Location of ToulouseLocation

Past Weather in Toulouse — Graph


Toulouse Temperature Yesterday

Maximum temperature yesterday: 66 °F (at 3:00 PM)
Minimum temperature yesterday: 57 °F (at 10:30 PM)
Average temperature yesterday: 62 °F

High & Low Weather Summary for the Past Weeks

High73 °F (Oct 23, 4:30 PM)100% (Oct 14, 7:00 AM)30.39 "Hg (Oct 14, 7:00 AM)
Low39 °F (Oct 21, 8:00 AM)36% (Oct 15, 3:30 PM)29.50 "Hg (Oct 14, 5:30 AM)
Average59 °F76%29.97 "Hg
* Reported Oct 12 12:00 AM — Oct 27 12:00 AM, Toulouse, Weather by CustomWeather, © 2016

Note: Actual official high and low records may vary slightly from our data, if they occured in-between our weather recording intervals... More about our weather records


Toulouse Weather History for the Previous 24 Hours

Scroll right to see more
Time TempWeatherWind HumidityBarometerVisibility
12:00 AM
Thu, Oct 27
57 °FClear.6 mph88%30.39 "Hg10 mi
11:30 PM
Wed, Oct 26
57 °FClear.8 mph94%30.39 "Hg10 mi
11:00 PM59 °FClear.7 mph88%30.36 "Hg10 mi
10:30 PM57 °FClear.5 mph94%30.36 "Hg10 mi
10:00 PM59 °FPassing clouds.6 mph94%30.36 "HgN/A
9:30 PM61 °FClear.7 mph94%30.36 "Hg10 mi
9:00 PM63 °FClear.8 mph88%30.33 "Hg10 mi
8:30 PM63 °FPassing clouds.7 mph88%30.33 "HgN/A
8:00 PM63 °FClear.7 mph88%30.33 "Hg10 mi
7:30 PM63 °FClear.7 mph88%30.30 "Hg10 mi
7:00 PM64 °FClear.8 mph83%30.30 "Hg10 mi
6:30 PM64 °FSunny.6 mph88%30.30 "Hg10 mi
6:00 PM64 °FSunny.7 mph88%30.30 "Hg10 mi
5:30 PM64 °FBroken clouds.9 mph88%30.30 "HgN/A
5:00 PM64 °FMostly cloudy.12 mph83%30.30 "HgN/A
4:30 PM64 °FLow clouds.12 mph88%30.30 "HgN/A
4:00 PM66 °FMostly cloudy.8 mph83%30.27 "HgN/A
3:30 PM66 °FMostly cloudy.5 mph83%30.27 "HgN/A
3:00 PM66 °FPartly sunny.2 mph83%30.27 "HgN/A
2:30 PM64 °FLow clouds.3 mph88%30.27 "HgN/A
2:00 PM63 °FLow clouds.5 mph94%30.30 "HgN/A
1:30 PM63 °FLow clouds.3 mph94%30.30 "HgN/A
1:00 PM63 °FMostly cloudy.2 mph94%30.30 "Hg6 mi
12:30 PM63 °FLight rain. Mostly cloudy.2 mph94%30.30 "Hg4 mi
12:00 PM63 °FLow clouds.2 mph94%30.30 "Hg4 mi
11:30 AM61 °FLow clouds.3 mph100%30.30 "Hg5 mi
11:00 AM61 °FLow clouds.1 mph94%30.27 "Hg4 mi
10:30 AM61 °FFog.2 mph94%30.27 "Hg1 mi
10:00 AM61 °FFog.2 mph94%30.27 "Hg0 mi
9:30 AM59 °FFog.No wind100%30.24 "Hg0 mi
9:00 AM59 °FFog.No wind94%30.24 "Hg1 mi
8:30 AM59 °FFog.2 mph94%30.24 "Hg1 mi
8:00 AM59 °FFog.3 mph100%30.21 "Hg0 mi
7:30 AM59 °FFog.2 mph100%30.21 "Hg1 mi
7:00 AM59 °FFog.2 mph100%30.21 "Hg1 mi
6:30 AM59 °FFog.No wind100%30.21 "Hg1 mi
6:00 AM59 °FFog.No wind100%30.18 "Hg0 mi
5:30 AM59 °FFog.2 mph100%30.18 "Hg1 mi
5:00 AM59 °FFog.3 mph100%30.18 "Hg1 mi
4:30 AM59 °FFog.2 mph100%30.18 "Hg1 mi
4:00 AM59 °FFog.2 mph100%30.18 "Hg1 mi
3:30 AM61 °FFog.5 mph94%30.18 "Hg1 mi
3:00 AM63 °FFog.6 mph94%30.18 "Hg1 mi
2:30 AM61 °FFog.6 mph100%30.18 "Hg1 mi
2:00 AM63 °FFog.6 mph94%30.18 "Hg1 mi
1:30 AM61 °FFog.5 mph94%30.18 "Hg3 mi
1:00 AM63 °FPassing clouds.2 mph88%30.18 "Hg2 mi
Weather by CustomWeather, © 2016

See weather overviewHow to use our weather pages